Location: Caltech
(34.1382°N, 118.1253°W)
Time: 21:13:17
(UTC-07:00)

COSMOS 2428 - Visible Passes

Search period start: 27 July 2014 00:00
Search period end: 06 August 2014 00:00
Orbit: 847 x 855 km, 71.0° (Epoch: 27 July)

Date Brightness Start Highest point End Pass type
(mag) Time Alt. Az. Time Alt. Az. Time Alt. Az.
27 Jul 3.5 21:38:18 10° N 21:43:29 35° ENE 21:45:07 30° E visible
27 Jul 4.3 23:22:53 10° NW 23:27:08 26° W 23:27:08 26° W visible
28 Jul 3.5 21:26:06 10° N 21:31:17 36° ENE 21:33:22 27° ESE visible
28 Jul 4.2 23:10:41 10° NW 23:15:18 26° WSW 23:15:23 26° WSW visible
29 Jul 3.5 21:13:54 10° N 21:19:05 36° ENE 21:21:40 24° ESE visible
29 Jul 4.2 22:58:29 10° NW 23:03:06 26° WSW 23:03:41 26° WSW visible
30 Jul 3.5 21:01:42 10° N 21:06:53 36° ENE 21:10:01 21° ESE visible
30 Jul 4.2 22:46:17 10° NW 22:50:54 26° WSW 22:52:02 25° WSW visible
31 Jul 3.5 20:49:29 10° N 20:54:41 36° ENE 20:58:24 17° ESE visible
31 Jul 4.3 22:34:04 10° NW 22:38:42 26° WSW 22:40:26 23° SW visible
01 Aug 3.5 20:37:17 10° N 20:42:29 36° ENE 20:46:52 14° SE visible
01 Aug 4.4 22:21:52 10° NW 22:26:30 26° WSW 22:28:54 20° SW visible
02 Aug 3.5 20:25:05 10° N 20:30:17 36° ENE 20:35:23 10° SE visible
02 Aug 4.4 22:09:40 10° NW 22:14:18 26° WSW 22:17:25 17° SW visible
03 Aug 3.5 20:12:53 10° N 20:18:04 36° ENE 20:23:15 10° SE visible
03 Aug 4.4 21:57:28 10° NW 22:02:05 26° WSW 22:06:01 13° SSW visible
04 Aug 4.5 21:45:15 10° NW 21:49:53 26° WSW 21:54:31 10° SSW visible
05 Aug 4.5 21:33:03 10° NW 21:37:41 26° WSW 21:42:18 10° SSW visible
